When you browse on this site, cookies collect data to enhance your experience and personalize the content and advertising you see.
Visit our Privacy Policy to learn more. By continuing to use the site, you agree to this use of cookies and data.
  • In Spain
  • List of Countries
  • For 7 days
  • Water Temperature
  • Satellite Maps
  • Weather Map
  • Weather Widgets
  • user-avatar
    Login

    Hourly Weather Mendoza

    Today, 23 July, Tuesday

    Time Temperature Precipitation Wind Pressure Humidity
    00:00 +5°C° 0 mm 2 mps 702 mmHg 42%
    01:00 +5°C° 0 mm 2 mps 702 mmHg 41%
    02:00 +5°C° 0 mm 2 mps 702 mmHg 41%
    03:00 +5°C° 0 mm 2 mps 702 mmHg 42%
    04:00 +4°C° 0 mm 3 mps 702 mmHg 43%
    05:00 +3°C° 0 mm 3 mps 702 mmHg 43%
    06:00 +3°C° 0 mm 3 mps 703 mmHg 44%
    07:00 +3°C° 0 mm 3 mps 703 mmHg 44%
    08:00 +5°C° 0 mm 3 mps 703 mmHg 41%
    09:00 +7°C° 0 mm 3 mps 703 mmHg 38%
    10:00 +8°C° 0 mm 3 mps 704 mmHg 34%
    11:00 +9°C° 0 mm 3 mps 703 mmHg 33%
    12:00 +9°C° 0 mm 2 mps 703 mmHg 32%
    13:00 +10°C° 0 mm 2 mps 702 mmHg 31%
    14:00 +10°C° 0 mm 2 mps 703 mmHg 31%
    15:00 +10°C° 0 mm 2 mps 703 mmHg 32%
    16:00 +10°C° 0 mm 2 mps 703 mmHg 32%
    17:00 +10°C° 0 mm 1 mps 703 mmHg 35%
    18:00 +9°C° 0 mm 1 mps 704 mmHg 39%
    19:00 +8°C° 0 mm 1 mps 704 mmHg 42%
    20:00 +8°C° 0 mm 1 mps 704 mmHg 45%
    21:00 +7°C° 0 mm 1 mps 704 mmHg 47%
    22:00 +6°C° 0 mm 1 mps 705 mmHg 49%
    23:00 +6°C° 0 mm 1 mps 705 mmHg 49%

    Tomorrow, 24 July, Wednesday

    Time Temperature Precipitation Wind Pressure Humidity
    00:00 +6°C° 0 mm 1 mps 705 mmHg 50%
    01:00 +6°C° 0 mm 1 mps 705 mmHg 50%
    02:00 +5°C° 0 mm 1 mps 705 mmHg 51%
    03:00 +5°C° 0 mm 1 mps 705 mmHg 51%
    04:00 +4°C° 0 mm 0 mps 705 mmHg 51%
    05:00 +4°C° 0 mm 0 mps 705 mmHg 51%
    06:00 +4°C° 0 mm 0 mps 705 mmHg 51%
    07:00 +4°C° 0 mm 0 mps 705 mmHg 51%
    08:00 +7°C° 0 mm 1 mps 705 mmHg 45%
    09:00 +8°C° 0 mm 1 mps 705 mmHg 39%
    10:00 +10°C° 0 mm 1 mps 705 mmHg 33%
    11:00 +10°C° 0 mm 2 mps 704 mmHg 32%
    12:00 +11°C° 0 mm 3 mps 704 mmHg 31%
    13:00 +12°C° 0 mm 3 mps 703 mmHg 30%
    14:00 +12°C° 0 mm 3 mps 703 mmHg 30%
    15:00 +12°C° 0 mm 3 mps 703 mmHg 30%
    16:00 +13°C° 0 mm 2 mps 702 mmHg 31%
    17:00 +10°C° 0 mm 2 mps 702 mmHg 34%
    18:00 +9°C° 0 mm 2 mps 703 mmHg 37%
    19:00 +8°C° 0 mm 2 mps 703 mmHg 40%
    20:00 +8°C° 0 mm 2 mps 702 mmHg 41%
    21:00 +8°C° 0 mm 1 mps 702 mmHg 42%
    22:00 +8°C° 0 mm 1 mps 702 mmHg 43%
    23:00 +7°C° 0 mm 1 mps 702 mmHg 44%

    Day after tomorrow, 25 July, Thursday

    Time Temperature Precipitation Wind Pressure Humidity
    00:00 +7°C° 0 mm 1 mps 702 mmHg 45%
    01:00 +6°C° 0 mm 1 mps 702 mmHg 46%
    02:00 +6°C° 0 mm 1 mps 701 mmHg 45%
    03:00 +6°C° 0 mm 1 mps 701 mmHg 45%
    04:00 +6°C° 0 mm 1 mps 701 mmHg 45%
    05:00 +6°C° 0 mm 1 mps 701 mmHg 45%
    06:00 +6°C° 0 mm 1 mps 701 mmHg 46%
    07:00 +5°C° 0 mm 1 mps 701 mmHg 47%
    08:00 +7°C° 0 mm 1 mps 701 mmHg 42%
    09:00 +9°C° 0 mm 1 mps 701 mmHg 38%
    10:00 +11°C° 0 mm 1 mps 701 mmHg 33%
    11:00 +12°C° 0 mm 1 mps 701 mmHg 31%
    12:00 +13°C° 0 mm 2 mps 700 mmHg 29%
    13:00 +14°C° 0 mm 2 mps 700 mmHg 27%
    14:00 +15°C° 0 mm 2 mps 700 mmHg 27%
    15:00 +15°C° 0 mm 1 mps 700 mmHg 27%
    16:00 +15°C° 0 mm 1 mps 700 mmHg 27%
    17:00 +13°C° 0 mm 1 mps 700 mmHg 30%
    18:00 +12°C° 0 mm 1 mps 700 mmHg 32%
    19:00 +11°C° 0 mm 1 mps 700 mmHg 35%
    20:00 +10°C° 0 mm 1 mps 700 mmHg 35%
    21:00 +10°C° 0 mm 1 mps 700 mmHg 36%
    22:00 +10°C° 0 mm 1 mps 700 mmHg 36%
    23:00 +9°C° 0 mm 1 mps 700 mmHg 37%

    26 July, Friday

    Time Temperature Precipitation Wind Pressure Humidity
    00:00 +7°C° 0 mm 0 mps 700 mmHg 38%
    01:00 +7°C° 0 mm 0 mps 700 mmHg 39%
    02:00 +7°C° 0 mm 0 mps 700 mmHg 41%
    03:00 +6°C° 0 mm 0 mps 700 mmHg 43%
    04:00 +6°C° 0 mm 0 mps 700 mmHg 46%
    05:00 +6°C° 0 mm 0 mps 700 mmHg 44%
    06:00 +7°C° 0 mm 1 mps 701 mmHg 42%
    07:00 +8°C° 0 mm 1 mps 701 mmHg 40%
    08:00 +9°C° 0 mm 2 mps 702 mmHg 34%
    09:00 +11°C° 0 mm 3 mps 702 mmHg 28%
    10:00 +13°C° 0 mm 3 mps 703 mmHg 22%
    11:00 +13°C° 0 mm 3 mps 702 mmHg 22%
    12:00 +14°C° 0 mm 3 mps 702 mmHg 21%
    13:00 +14°C° 0 mm 3 mps 701 mmHg 21%
    14:00 +14°C° 0 mm 3 mps 701 mmHg 22%
    15:00 +14°C° 0 mm 3 mps 701 mmHg 23%
    16:00 +14°C° 0 mm 3 mps 701 mmHg 25%
    17:00 +13°C° 0 mm 2 mps 701 mmHg 30%
    18:00 +11°C° 0 mm 1 mps 701 mmHg 35%
    19:00 +10°C° 0 mm 1 mps 702 mmHg 40%
    20:00 +10°C° 0 mm 1 mps 701 mmHg 41%
    21:00 +9°C° 0 mm 1 mps 701 mmHg 42%
    22:00 +9°C° 0 mm 1 mps 701 mmHg 42%
    23:00 +9°C° 0 mm 1 mps 701 mmHg 44%

    27 July, Saturday

    Time Temperature Precipitation Wind Pressure Humidity
    00:00 +8°C° 0 mm 1 mps 701 mmHg 45%
    01:00 +8°C° 0 mm 1 mps 701 mmHg 46%
    02:00 +8°C° 0 mm 1 mps 701 mmHg 48%
    03:00 +7°C° 0 mm 1 mps 700 mmHg 49%
    04:00 +7°C° 0 mm 1 mps 700 mmHg 51%
    05:00 +7°C° 0 mm 1 mps 700 mmHg 51%
    06:00 +7°C° 0 mm 1 mps 700 mmHg 51%
    07:00 +7°C° 0 mm 1 mps 700 mmHg 51%
    08:00 +9°C° 0 mm 1 mps 700 mmHg 47%
    09:00 +10°C° 0 mm 1 mps 700 mmHg 42%
    10:00 +12°C° 0 mm 2 mps 701 mmHg 37%
    11:00 +13°C° 0 mm 2 mps 700 mmHg 36%
    12:00 +14°C° 0 mm 2 mps 699 mmHg 35%
    13:00 +14°C° 0 mm 2 mps 699 mmHg 34%
    14:00 +14°C° 0 mm 2 mps 699 mmHg 34%
    15:00 +14°C° 0 mm 2 mps 698 mmHg 34%
    16:00 +14°C° 0 mm 2 mps 698 mmHg 34%
    17:00 +13°C° 0 mm 1 mps 698 mmHg 37%
    18:00 +12°C° 0 mm 1 mps 698 mmHg 40%
    19:00 +11°C° 0 mm 1 mps 698 mmHg 43%
    20:00 +10°C° 0 mm 1 mps 698 mmHg 44%
    21:00 +10°C° 0 mm 1 mps 698 mmHg 44%
    22:00 +10°C° 0 mm 1 mps 698 mmHg 45%
    23:00 +9°C° 0 mm 1 mps 697 mmHg 47%

    28 July, Sunday

    Time Temperature Precipitation Wind Pressure Humidity
    00:00 +9°C° 0 mm 1 mps 697 mmHg 49%
    01:00 +7°C° 0 mm 0 mps 697 mmHg 51%
    02:00 +8°C° 0 mm 1 mps 697 mmHg 53%
    03:00 +8°C° 0 mm 1 mps 697 mmHg 55%
    04:00 +7°C° 0 mm 1 mps 697 mmHg 58%
    05:00 +8°C° 0 mm 1 mps 697 mmHg 59%
    06:00 +8°C° 0 mm 1 mps 697 mmHg 60%
    07:00 +8°C° 0 mm 1 mps 698 mmHg 61%
    08:00 +10°C° 0 mm 1 mps 698 mmHg 54%
    09:00 +12°C° 0 mm 1 mps 698 mmHg 47%
    10:00 +14°C° 0 mm 1 mps 699 mmHg 40%
    11:00 +15°C° 0 mm 1 mps 698 mmHg 38%
    12:00 +15°C° 0 mm 1 mps 698 mmHg 36%
    13:00 +16°C° 0 mm 1 mps 697 mmHg 34%
    14:00 +16°C° 0 mm 1 mps 697 mmHg 33%
    15:00 +16°C° 0 mm 1 mps 697 mmHg 33%
    16:00 +16°C° 0 mm 1 mps 697 mmHg 33%
    17:00 +15°C° 0 mm 1 mps 697 mmHg 36%
    18:00 +14°C° 0 mm 1 mps 697 mmHg 40%
    19:00 +11°C° 0 mm 0 mps 698 mmHg 44%
    20:00 +11°C° 0 mm 0 mps 698 mmHg 45%
    21:00 +10°C° 0 mm 0 mps 698 mmHg 47%
    22:00 +10°C° 0 mm 0 mps 698 mmHg 49%
    23:00 +9°C° 0 mm 0 mps 698 mmHg 51%
    Show more